#timestamp,LO_Frequency,Hit,StdDev 
1689667215.8,286047000.8,N
1689667235.6,286047000.0,N
1689667255.4,286047002.7,N
1689667275.3,286046999.7,N
1689667295.1,286046999.8,N
1689667315.9,286047002.8,N
1689667335.7,286047002.4,N
1689667355.5,286047001.3,N
1689667375.4,286047001.7,N
1689667395.2,286047002.1,N
1689667415.0,286047000.0,N
1689667415.9,286047000.0,N
1689667435.8,286046999.9,N
1689667455.6,286047002.4,N
1689667475.5,286047002.2,N
1689667495.3,286047004.3,N
1689667515.1,286047001.8,N
1689667535.9,286047001.7,N
1689667555.7,286047002.6,N
1689667575.5,286047004.0,N
1689667595.4,286047002.0,N
1689667615.2,286046999.9,N
1689667635.1,286047001.0,N
1689667636.0,286047001.0,N
1689667655.8,286046996.6,N
1689667675.6,286046996.6,N
1689667695.5,286046997.0,N
1689667715.3,286046999.6,N
1689667735.2,286046999.1,N
1689667755.9,286046999.1,N
1689667775.7,286046999.6,N
1689667795.6,286046999.3,N
1689667815.4,286047000.7,N
1689667835.2,286046999.9,N
1689667855.1,286047002.2,N
1689667856.0,286047002.2,N
1689667875.8,286046999.8,N
1689667895.7,286047000.0,N
1689667915.5,286046999.7,N
1689667935.3,286047001.1,N
1689667955.2,286046998.5,N
1689667975.9,286046996.9,N
1689667995.7,286046998.8,N
1689668015.6,286046998.6,N
1689668035.4,286047001.0,N
1689668055.3,286047001.2,N
1689668075.1,286047001.1,N
1689668076.0,286047001.1,N
1689668095.8,286047000.8,N
1689668115.7,286047001.2,N
1689668135.5,286047001.2,N
1689668155.3,286047000.4,N
1689668175.2,286047000.4,N
1689668195.0,286046999.5,N
1689668195.9,286046999.5,N
1689668215.8,286046998.9,N
1689668235.6,286046998.9,N
1689668255.4,286046998.1,N
1689668275.3,286046997.3,N
1689668295.1,286046997.5,N
1689668315.8,286046995.2,Y
1689668335.7,286046995.0,P
1689668355.5,286046995.0,N
1689668375.4,286046998.0,N
1689668395.2,286046995.5,N
1689668415.0,286046994.9,N
1689668415.9,286046994.9,N
1689668435.8,286046997.8,N
1689668455.6,286046995.5,N
1689668475.4,286046995.9,N
1689668495.3,286046997.5,N
1689668515.1,286046993.8,Y
1689668535.9,286046996.9,P
1689668555.7,286046997.2,P
1689668575.5,286046997.1,P
1689668595.4,286046998.6,Y
1689668615.2,286047004.3,P
1689668635.0,286047004.1,N
1689668636.0,286047004.1,N
1689668655.8,286047002.9,N
1689668675.6,286047005.6,N
1689668695.5,286047002.9,N
1689668715.3,286047005.9,N
1689668735.1,286047003.2,N
1689668755.9,286047004.2,N
1689668775.7,286047003.7,N
1689668795.5,286047003.7,N
1689668815.4,286047001.3,N
1689668835.2,286047001.8,N
1689668855.1,286047001.8,N
1689668856.0,286047001.8,N
1689668875.8,286047001.5,N
1689668895.6,286047004.2,N
1689668915.5,286047000.4,N
1689668935.3,286046999.3,N
1689668955.2,286046999.5,N
1689668975.9,286046996.7,N
1689668995.7,286046996.7,N
1689669015.6,286046996.9,N
1689669035.4,286046994.9,N
1689669055.2,286046996.6,N
1689669075.1,286046998.4,N
1689669076.0,286046998.4,N
1689669095.8,286046999.4,N
1689669115.7,286046998.5,N
1689669135.5,286047000.8,N
1689669155.3,286046999.1,N
1689669175.2,286046998.4,N
1689669195.0,286047000.4,N
1689669195.9,286047000.4,N
1689669215.7,286047002.3,N
1689669235.6,286047000.2,N
1689669255.4,286047002.7,N
1689669275.3,286046999.9,N
1689669295.1,286047000.0,N
1689669296.0,286047000.0,N
1689669315.8,286047001.9,N
1689669335.7,286047002.3,N
1689669355.5,286047000.2,N
1689669375.3,286047002.8,N
1689669395.2,286047000.4,N
1689669415.0,286047000.3,N
1689669415.9,286047000.3,N
1689669435.8,286046998.6,N
1689669455.6,286047000.3,N
1689669475.4,286046999.9,N
1689669495.3,286046998.1,N
1689669515.1,286046997.7,N
1689669535.8,286046998.0,N
1689669555.7,286046996.8,N
1689669575.5,286046995.7,N
1689669595.4,286046993.4,Y
1689669615.2,286046994.1,P
1689669635.0,286046992.0,N
1689669635.9,286046992.0,N
1689669655.8,286046994.6,N
1689669675.6,286046993.5,N
1689669695.5,286046993.6,N
1689669715.3,286046995.8,N
1689669735.1,286046996.2,N
1689669755.9,286046994.9,N
1689669775.7,286046998.0,N
1689669795.5,286046993.6,N
1689669815.4,286046993.5,N
1689669835.2,286046996.0,N
1689669855.1,286046995.2,N
1689669856.0,286046995.2,N
1689669875.8,286046993.7,Y
1689669895.6,286046998.4,P
1689669915.5,286046999.5,N
1689669935.3,286046996.6,N
1689669955.1,286046999.5,N
1689669975.9,286046996.9,N
1689669995.7,286046998.7,N
1689670015.6,286047000.1,N
1689670035.4,286047000.0,N
1689670055.2,286047000.9,N
1689670075.1,286046999.7,N
1689670076.0,286046999.7,N
1689670095.8,286047002.3,N
1689670115.6,286047002.2,N
1689670135.5,286047003.9,N
1689670155.3,286047006.0,N
1689670175.2,286047003.7,N
1689670195.9,286047003.2,N
1689670215.7,286047006.0,N
1689670235.6,286047005.4,N
1689670255.4,286047004.8,N
1689670275.2,286047007.0,N
1689670295.1,286047003.0,N
1689670296.0,286047003.0,N
1689670315.8,286047004.1,N
1689670335.7,286047003.4,N
1689670355.5,286047003.3,N
1689670375.3,286047005.6,N
1689670395.2,286047005.6,N
1689670415.0,286047005.1,N
1689670415.9,286047005.1,N
1689670435.7,286047005.6,N
1689670455.6,286047005.5,N
1689670475.4,286047005.9,N
1689670495.3,286047004.2,N
1689670515.1,286047004.1,N
1689670516.0,286047004.1,N
1689670535.8,286047003.0,N
1689670555.7,286047005.1,N
1689670575.5,286047003.3,N
1689670595.4,286047005.4,Y
1689670615.2,286047000.6,P
1689670635.0,286046999.7,N
1689670635.9,286046999.7,N
1689670655.8,286046998.5,N
1689670675.6,286046999.2,N
1689670695.4,286046998.2,N
1689670715.3,286047000.9,N
1689670735.1,286047001.0,N
1689670755.9,286047000.0,N
1689670775.7,286047001.9,N
1689670795.5,286047001.9,N
